• In Österreich
  • Länderverzeichnis
  • Für 7 Tage
  • Wassertemperatur
  • Satellitenkarten
  • Wetterkarte
  • News
  • Widgets
  • user-avatar
    Anmelden

    Stündliche Wetter Chyzhivka

    Heute, 18 Juni, Montag

    Zeit Temperatur Niederschläge Wind Luftdruck Luftfeuchtigkeit
    00:00 +20°C° 0,1 mm 2 m/S 748 mmHg 94%
    01:00 +19°C° 0,1 mm 2 m/S 748 mmHg 94%
    02:00 +19°C° 0,1 mm 2 m/S 748 mmHg 95%
    03:00 +19°C° 0,5 mm 2 m/S 748 mmHg 95%
    04:00 +19°C° 0,5 mm 2 m/S 748 mmHg 95%
    05:00 +19°C° 0,5 mm 2 m/S 748 mmHg 95%
    06:00 +19°C° 0,3 mm 2 m/S 748 mmHg 92%
    07:00 +20°C° 0,3 mm 2 m/S 749 mmHg 89%
    08:00 +21°C° 0,3 mm 2 m/S 749 mmHg 87%
    09:00 +23°C° 0,2 mm 2 m/S 749 mmHg 83%
    10:00 +23°C° 0,2 mm 2 m/S 749 mmHg 78%
    11:00 +24°C° 0,2 mm 2 m/S 749 mmHg 74%
    12:00 +25°C° 0,2 mm 2 m/S 749 mmHg 71%
    13:00 +26°C° 0,2 mm 2 m/S 749 mmHg 68%
    14:00 +26°C° 0,2 mm 2 m/S 749 mmHg 65%
    15:00 +26°C° 0,5 mm 1 m/S 749 mmHg 66%
    16:00 +26°C° 0,5 mm 1 m/S 748 mmHg 67%
    17:00 +26°C° 0,5 mm 1 m/S 748 mmHg 68%
    18:00 +25°C° 0,3 mm 1 m/S 748 mmHg 72%
    19:00 +23°C° 0,3 mm 1 m/S 748 mmHg 76%
    20:00 +22°C° 0,3 mm 1 m/S 748 mmHg 80%
    21:00 +21°C° 0 mm 1 m/S 749 mmHg 81%
    22:00 +21°C° 0 mm 1 m/S 749 mmHg 83%
    23:00 +20°C° 0 mm 1 m/S 749 mmHg 84%

    Morgen, 19 Juni, Dienstag

    Zeit Temperatur Niederschläge Wind Luftdruck Luftfeuchtigkeit
    00:00 +20°C° 0,1 mm 1 m/S 749 mmHg 85%
    01:00 +19°C° 0,1 mm 1 m/S 749 mmHg 87%
    02:00 +19°C° 0,1 mm 1 m/S 749 mmHg 88%
    03:00 +19°C° 0 mm 1 m/S 749 mmHg 89%
    04:00 +19°C° 0 mm 1 m/S 749 mmHg 89%
    05:00 +19°C° 0 mm 1 m/S 749 mmHg 89%
    06:00 +21°C° 0 mm 1 m/S 749 mmHg 84%
    07:00 +21°C° 0 mm 2 m/S 750 mmHg 79%
    08:00 +24°C° 0 mm 2 m/S 750 mmHg 74%
    09:00 +25°C° 0,6 mm 2 m/S 750 mmHg 72%
    10:00 +26°C° 0,6 mm 2 m/S 749 mmHg 70%
    11:00 +27°C° 0,6 mm 2 m/S 749 mmHg 68%
    12:00 +27°C° 0,6 mm 2 m/S 749 mmHg 66%
    13:00 +28°C° 0,6 mm 3 m/S 749 mmHg 64%
    14:00 +28°C° 0,6 mm 3 m/S 749 mmHg 62%
    15:00 +28°C° 0,9 mm 3 m/S 749 mmHg 66%
    16:00 +27°C° 0,9 mm 3 m/S 749 mmHg 70%
    17:00 +27°C° 0,9 mm 3 m/S 749 mmHg 74%
    18:00 +25°C° 0,2 mm 2 m/S 749 mmHg 78%
    19:00 +24°C° 0,2 mm 2 m/S 749 mmHg 82%
    20:00 +23°C° 0,2 mm 2 m/S 749 mmHg 86%
    21:00 +21°C° 0 mm 2 m/S 749 mmHg 87%
    22:00 +20°C° 0 mm 2 m/S 749 mmHg 88%
    23:00 +19°C° 0 mm 2 m/S 750 mmHg 90%

    übermorgen, 20 Juni, Mittwoch

    Zeit Temperatur Niederschläge Wind Luftdruck Luftfeuchtigkeit
    00:00 +18°C° 0 mm 2 m/S 750 mmHg 89%
    01:00 +17°C° 0 mm 2 m/S 750 mmHg 89%
    02:00 +16°C° 0 mm 2 m/S 750 mmHg 89%
    03:00 +16°C° 0 mm 2 m/S 750 mmHg 89%
    04:00 +16°C° 0 mm 2 m/S 751 mmHg 90%
    05:00 +17°C° 0 mm 2 m/S 751 mmHg 90%
    06:00 +18°C° 0 mm 2 m/S 751 mmHg 85%
    07:00 +20°C° 0 mm 2 m/S 751 mmHg 79%
    08:00 +22°C° 0 mm 3 m/S 752 mmHg 74%
    09:00 +24°C° 0 mm 3 m/S 752 mmHg 69%
    10:00 +25°C° 0 mm 3 m/S 752 mmHg 64%
    11:00 +26°C° 0 mm 4 m/S 752 mmHg 59%
    12:00 +26°C° 0 mm 4 m/S 752 mmHg 57%
    13:00 +27°C° 0 mm 4 m/S 752 mmHg 56%
    14:00 +27°C° 0 mm 4 m/S 751 mmHg 54%
    15:00 +27°C° 0 mm 4 m/S 751 mmHg 55%
    16:00 +27°C° 0 mm 4 m/S 751 mmHg 57%
    17:00 +27°C° 0 mm 3 m/S 751 mmHg 59%
    18:00 +25°C° 0 mm 3 m/S 751 mmHg 64%
    19:00 +23°C° 0 mm 2 m/S 751 mmHg 69%
    20:00 +21°C° 0 mm 2 m/S 751 mmHg 75%
    21:00 +20°C° 0 mm 2 m/S 751 mmHg 76%
    22:00 +19°C° 0 mm 2 m/S 751 mmHg 78%
    23:00 +19°C° 0 mm 1 m/S 752 mmHg 80%

    21 Juni, Donnerstag

    Zeit Temperatur Niederschläge Wind Luftdruck Luftfeuchtigkeit
    00:00 +18°C° 0 mm 1 m/S 752 mmHg 80%
    01:00 +16°C° 0 mm 1 m/S 752 mmHg 81%
    02:00 +16°C° 0 mm 1 m/S 752 mmHg 81%
    03:00 +16°C° 0 mm 1 m/S 752 mmHg 81%
    04:00 +16°C° 0 mm 1 m/S 752 mmHg 81%
    05:00 +16°C° 0 mm 1 m/S 752 mmHg 81%
    06:00 +19°C° 0 mm 1 m/S 752 mmHg 75%
    07:00 +21°C° 0 mm 1 m/S 752 mmHg 69%
    08:00 +23°C° 0 mm 1 m/S 752 mmHg 62%
    09:00 +24°C° 0 mm 1 m/S 751 mmHg 57%
    10:00 +26°C° 0 mm 1 m/S 751 mmHg 52%
    11:00 +27°C° 0 mm 1 m/S 751 mmHg 48%
    12:00 +28°C° 0 mm 1 m/S 751 mmHg 46%
    13:00 +26°C° 0 mm 0 m/S 750 mmHg 44%
    14:00 +27°C° 0 mm 0 m/S 750 mmHg 43%
    15:00 +29°C° 0 mm 1 m/S 749 mmHg 45%
    16:00 +28°C° 0 mm 1 m/S 749 mmHg 46%
    17:00 +28°C° 0 mm 2 m/S 749 mmHg 48%
    18:00 +26°C° 0 mm 2 m/S 748 mmHg 55%
    19:00 +24°C° 0 mm 2 m/S 748 mmHg 62%
    20:00 +21°C° 0 mm 2 m/S 748 mmHg 69%
    21:00 +21°C° 0 mm 2 m/S 748 mmHg 71%
    22:00 +20°C° 0 mm 2 m/S 748 mmHg 73%
    23:00 +19°C° 0 mm 3 m/S 747 mmHg 74%

    22 Juni, Freitag

    Zeit Temperatur Niederschläge Wind Luftdruck Luftfeuchtigkeit
    00:00 +19°C° 0 mm 3 m/S 747 mmHg 77%
    01:00 +19°C° 0 mm 3 m/S 747 mmHg 79%
    02:00 +18°C° 0 mm 3 m/S 746 mmHg 81%
    03:00 +18°C° 0 mm 3 m/S 746 mmHg 82%
    04:00 +18°C° 0 mm 3 m/S 746 mmHg 83%
    05:00 +18°C° 0 mm 3 m/S 746 mmHg 85%
    06:00 +20°C° 0 mm 4 m/S 745 mmHg 79%
    07:00 +22°C° 0 mm 4 m/S 745 mmHg 73%
    08:00 +25°C° 0 mm 5 m/S 745 mmHg 67%
    09:00 +26°C° 0 mm 5 m/S 744 mmHg 64%
    10:00 +27°C° 0 mm 5 m/S 744 mmHg 60%
    11:00 +29°C° 0 mm 6 m/S 743 mmHg 57%
    12:00 +29°C° 0,1 mm 6 m/S 743 mmHg 57%
    13:00 +29°C° 0,1 mm 6 m/S 743 mmHg 58%
    14:00 +30°C° 0,1 mm 6 m/S 742 mmHg 59%
    15:00 +29°C° 1,3 mm 5 m/S 742 mmHg 65%
    16:00 +28°C° 1,3 mm 5 m/S 742 mmHg 70%
    17:00 +27°C° 1,3 mm 4 m/S 742 mmHg 76%
    18:00 +26°C° 0,6 mm 4 m/S 742 mmHg 81%
    19:00 +24°C° 0,6 mm 3 m/S 742 mmHg 85%
    20:00 +23°C° 0,6 mm 2 m/S 742 mmHg 89%
    21:00 +21°C° 0 mm 2 m/S 742 mmHg 91%
    22:00 +21°C° 0 mm 2 m/S 742 mmHg 93%
    23:00 +20°C° 0 mm 2 m/S 742 mmHg 94%

    23 Juni, Samstag

    Zeit Temperatur Niederschläge Wind Luftdruck Luftfeuchtigkeit
    00:00 +19°C° 0 mm 3 m/S 742 mmHg 95%
    01:00 +19°C° 0 mm 3 m/S 742 mmHg 95%
    02:00 +18°C° 0 mm 3 m/S 742 mmHg 96%
    03:00 +17°C° 0,4 mm 4 m/S 742 mmHg 95%
    04:00 +15°C° 0,4 mm 4 m/S 742 mmHg 94%
    05:00 +14°C° 0,4 mm 4 m/S 742 mmHg 93%
    06:00 +14°C° 1,3 mm 4 m/S 742 mmHg 93%
    07:00 +14°C° 1,3 mm 4 m/S 742 mmHg 93%
    08:00 +14°C° 1,3 mm 4 m/S 742 mmHg 93%
    09:00 +14°C° 1,5 mm 4 m/S 743 mmHg 92%
    10:00 +13°C° 1,5 mm 4 m/S 743 mmHg 92%
    11:00 +13°C° 1,5 mm 5 m/S 744 mmHg 92%
    12:00 +13°C° 0,7 mm 4 m/S 744 mmHg 91%
    13:00 +14°C° 0,7 mm 4 m/S 744 mmHg 90%
    14:00 +14°C° 0,7 mm 4 m/S 744 mmHg 90%
    15:00 +16°C° 0,1 mm 3 m/S 745 mmHg 85%
    16:00 +16°C° 0,1 mm 3 m/S 745 mmHg 79%
    17:00 +17°C° 0,1 mm 2 m/S 745 mmHg 74%
    18:00 +16°C° 0 mm 2 m/S 745 mmHg 77%
    19:00 +15°C° 0 mm 1 m/S 745 mmHg 80%
    20:00 +14°C° 0 mm 1 m/S 746 mmHg 83%
    21:00 +14°C° 0 mm 1 m/S 746 mmHg 84%
    22:00 +13°C° 0 mm 2 m/S 746 mmHg 85%
    23:00 +12°C° 0 mm 2 m/S 746 mmHg 87%
    Mehr zeigen